Probability
13 13 12 11 13 14 12 9 9 9 8 7 6 3 2 2 2 2 1 1 3 3 2 1 2 3 2 1 0 1 1 1 0 0 3 11 20 21 17 12 5 1 0
14 14 14 13 13 14 12 10 11 11 9 6 4 2 1 1 1 1 1 0 1 2 2 3 4 5 4 3 1 1 1 1 0 0 3 12 22 27 25 17 9 4 2
15 16 16 15 14 14 14 13 12 11 7 4 3 2 1 0 0 1 1 1 1 2 3 5 6 7 8 7 5 4 3 2 1 1 2 9 19 27 28 20 13 10 6
16 17 18 17 15 15 14 14 12 9 7 6 6 4 2 0 0 1 3 3 3 3 5 6 7 8 9 8 7 7 6 4 3 2 2 4 11 20 24 19 14 12 9
17 18 19 18 16 15 15 13 12 11 9 10 11 7 3 1 1 2 4 6 7 7 6 6 7 6 5 4 4 4 4 4 4 3 3 2 5 12 15 13 10 8 7
22 20 19 19 18 17 16 14 14 15 14 14 14 9 3 1 1 1 3 8 11 11 9 7 5 3 1 0 0 1 1 1 2 2 2 2 3 6 7 7 6 5 4
27 24 22 23 23 21 17 16 17 18 18 17 15 9 3 1 0 0 2 7 11 11 8 7 4 1 0 0 0 1 1 1 0 0 0 1 3 4 4 4 5 5 5
32 30 30 28 25 22 19 19 22 23 23 21 15 8 3 1 0 0 2 5 6 5 4 3 2 0 0 0 0 2 2 2 0 0 0 0 1 3 3 2 3 4 4
35 35 34 31 27 24 24 25 25 25 22 19 12 5 2 0 0 0 1 2 1 0 0 0 0 0 0 0 0 1 1 1 0 0 0 0 0 1 1 0 1 1 1
36 35 33 31 29 28 28 26 23 19 13 8 5 2 0 0 0 0 0 0 0 0 0 0 0 0 0 0 0 0 0 0 0 0 0 0 0 0 0 0 0 0 0
34 32 29 26 25 24 24 20 15 9 4 1 0 0 0 0 0 0 0 0 0 0 0 0 0 0 0 0 0 0 0 0 0 0 0 0 0 1 0 0 0 0 0
27 25 22 18 15 14 14 11 6 3 1 0 0 0 0 0 0 0 0 0 0 0 0 0 0 0 0 0 0 0 0 0 0 0 0 0 0 0 0 0 0 0 0
19 16 12 9 8 6 5 4 2 1 0 0 0 0 0 0 0 0 0 0 0 0 0 0 0 0 0 0 0 0 0 0 0 0 0 0 0 0 0 0 0 0 0
9 6 3 3 3 2 1 1 1 0 0 0 0 0 0 0 0 0 0 0 0 0 0 0 0 0 0 0 0 0 0 0 0 0 0 0 0 0 0 0 0 0 0
3 1 0 0 0 0 0 0 0 0 0 0 0 0 0 0 0 0 0 0 0 0 0 0 0 0 0 0 0 0 0 0 0 0 0 0 0 0 0 0 0 0 0
1 0 0 0 0 0 0 0 0 0 0 0 0 0 0 0 0 0 0 0 0 0 0 0 0 0 0 0 0 0 0 0 0 0 0 0 0 0 0 0 0 0 0
0 0 0 0 0 0 0 0 0 0 0 0 0 0 0 0 0 0 0 0 0 0 0 0 0 0 0 0 0 0 0 0 0 0 0 0 0 0 0 0 0 0 0
0 0 0 0 0 0 0 0 0 0 0 0 0 0 0 0 0 0 0 0 0 0 0 0 0 0 0 0 0 0 0 0 0 0 0 0 0 0 0 0 0 0 0
0 0 0 0 0 0 0 0 0 0 0 0 0 0 0 0 0 0 0 0 0 0 0 0 0 0 0 0 0 0 0 0 0 0 0 0 0 0 0 0 0 0 0
0 0 0 0 0 0 0 0 0 0 0 0 0 0 0 0 0 0 0 0 0 0 0 0 0 0 0 0 0 0 0 0 0 0 0 0 0 0 0 0 0 0 0
0 0 0 0 0 0 0 0 0 0 0 0 0 0 0 0 0 0 0 0 0 0 0 0 0 0 0 0 0 0 0 0 0 0 0 0 0 0 0 0 0 0 0
0 0 0 0 0 0 0 0 0 0 0 0 0 0 0 0 0 0 0 0 0 0 0 0 0 0 0 0 0 0 0 0 0 0 0 0 0 0 0 0 0 0 0
0 0 0 0 0 0 0 0 0 0 0 0 0 0 0 0 0 0 0 0 0 0 0 0 0 0 0 0 0 0 0 0 0 0 0 0 0 0 0 0 0 0 0
0 0 0 0 0 0 0 0 0 0 0 0 0 0 0 0 0 0 0 0 0 0 0 0 0 0 0 0 0 0 0 0 0 0 0 0 0 0 0 0 0 0 0
0 0 0 0 0 0 0 0 0 0 0 0 0 0 0 0 0 0 0 0 0 0 0 0 0 0 0 0 0 0 0 0 0 0 0 0 0 0 0 0 0 0 0
0 0 0 0 0 0 0 0 0 0 0 0 0 0 0 0 0 0 0 0 0 0 0 0 0 0 0 0 0 0 0 0 0 0 0 0 0 0 0 0 0 0 0
Wind_Speed
8 7 7 7 6 6 5 5 5 5 6 6 6 5 5 5 4 3 3 3 3 3 3 3 3 3 2 3 2 2 2 2 3 3 2 1 2 1 3 4 4 4 7
8 7 7 7 7 7 6 5 5 6 5 6 5 4 4 5 4 4 4 3 3 4 4 3 3 3 3 3 3 3 3 2 2 4 3 3 2 3 4 4 5 6 5
9 9 8 7 7 7 6 6 5 5 5 5 5 4 4 3 4 4 4 3 3 3 2 2 2 2 2 2 3 3 3 4 2 3 4 3 3 3 3 4 6 4 7
9 9 9 8 8 7 6 6 6 5 5 4 4 3 2 2 1 2 2 2 2 1 1 0 1 1 1 2 3 3 3 4 4 4 4 4 3 3 2 2 3 3 4
9 9 9 8 7 6 6 6 5 5 5 4 3 2 2 1 2 1 0 1 1 0 1 1 2 4 5 3 3 3 3 3 3 4 4 4 3 3 3 3 4 4 4
8 8 8 8 7 6 6 6 5 5 4 4 3 3 3 3 5 6 3 2 2 2 2 2 3 5 5 4 4 4 3 3 3 3 4 4 4 4 3 4 4 4 4
8 8 8 7 7 7 7 6 6 5 5 5 5 6 7 7 8 8 8 4 4 4 4 4 5 7 8 5 4 3 3 2 1 2 4 4 4 4 4 5 5 5 5
8 8 8 8 8 7 7 6 6 5 6 6 7 7 7 9 10 10 7 4 5 6 6 6 6 7 8 7 6 4 4 3 3 2 2 3 4 3 3 4 5 6 6
8 8 8 8 8 7 7 7 6 7 8 8 8 8 9 9 11 11 8 4 5 6 6 7 6 6 8 9 6 5 5 4 4 5 5 6 8 9 7 4 4 5 6
9 8 8 8 9 9 8 8 7 8 8 9 9 9 10 9 12 13 11 5 5 4 5 7 10 7 7 8 5 5 5 6 7 8 7 7 7 7 8 5 4 5 6
10 10 9 9 10 9 9 8 8 9 10 9 9 8 9 9 11 13 12 6 5 4 4 4 4 5 5 5 5 3 4 6 7 7 6 5 4 3 3 2 3 4 5
12 12 11 10 10 10 10 9 9 9 9 8 8 7 7 7 8 9 10 9 7 5 4 4 3 4 6 6 4 5 8 8 5 5 5 4 4 4 4 5 5 4 4
12 12 11 12 10 9 9 9 7 5 6 6 6 7 7 5 6 7 6 6 7 4 4 5 4 5 6 5 4 6 6 4 5 5 5 5 5 5 5 5 6 5 6
13 11 10 11 10 10 8 8 7 6 6 6 6 6 6 6 6 5 5 5 6 5 5 6 7 6 4 6 5 3 2 3 4 5 5 5 5 5 5 6 7 6 6
12 10 10 11 11 11 11 10 10 9 8 7 7 6 6 6 5 6 5 5 6 6 7 5 2 2 3 3 4 4 4 5 5 5 6 6 6 6 6 6 6 7 7
9 9 8 8 8 9 10 10 15 12 14 15 13 10 7 5 3 5 7 7 8 9 6 4 4 5 5 6 6 6 5 6 6 6 5 6 6 6 6 6 6 6 7
8 7 7 7 7 7 7 8 8 8 10 11 10 10 7 3 2 4 7 9 10 7 4 4 5 5 5 5 6 6 6 6 5 5 6 6 6 6 7 7 7 7 7
8 8 6 5 5 5 5 6 6 6 6 5 4 4 3 1 2 5 8 8 4 2 4 5 5 5 5 5 6 6 6 6 6 6 6 6 6 7 7 8 7 8 8
6 5 5 5 5 4 4 5 5 6 6 5 4 2 2 4 5 6 6 4 5 6 6 6 6 6 5 5 5 5 6 5 6 6 6 7 7 7 8 8 8 10 9
6 8 5 4 4 4 4 5 5 5 5 4 4 3 2 2 1 1 1 3 5 6 6 6 6 5 5 5 5 5 6 6 6 6 7 7 8 8 9 10 9 9 9
5 5 4 4 5 5 5 5 5 4 4 4 5 4 3 3 4 5 5 5 6 6 6 5 5 5 5 5 5 6 8 7 6 7 8 8 9 9 8 8 9 9 9
4 4 5 6 6 5 5 5 4 4 4 5 4 3 2 4 5 6 6 6 6 5 5 5 6 5 5 5 6 6 7 7 8 9 9 9 9 9 9 9 9 9 9
5 6 6 6 5 4 3 5 5 4 5 5 5 4 4 5 5 6 6 5 5 5 5 4 5 5 5 5 5 5 6 7 8 10 10 10 10 10 9 9 11 11 10
5 6 6 5 4 4 5 5 4 5 5 5 5 5 5 4 5 5 5 5 5 4 4 4 5 7 8 6 5 6 6 7 8 8 11 11 11 11 10 10 10 11 10
6 6 5 5 5 4 4 4 5 5 5 4 5 5 5 5 5 4 4 4 5 5 6 6 5 6 8 10 10 8 7 7 7 8 9 9 12 12 11 11 10 10 10
6 5 5 4 4 4 4 4 4 4 4 4 4 4 4 4 4 4 5 5 6 5 5 5 8 9 9 8 9 7 6 8 9 9 9 9 11 10 11 10 13 11 11
Wind_Direction
170 174 169 170 166 163 172 167 162 151 150 157 162 167 175 177 182 193 226 188 201 217 235 227 226 268 308 314 294 271 264 262 272 287 295 266 170 205 166 221 236 217 213
171 169 167 164 163 168 170 161 156 155 159 160 166 173 188 187 182 191 219 213 206 214 230 233 234 238 235 277 300 299 292 284 270 284 294 298 259 224 215 227 249 251 245
171 169 165 165 167 171 164 157 156 158 165 166 170 183 196 191 183 197 214 222 222 226 230 233 241 257 259 266 273 292 301 294 270 265 274 274 271 260 246 244 252 260 271
167 166 163 166 166 165 160 157 159 162 167 169 168 166 171 174 183 205 213 222 226 238 248 268 291 293 297 293 286 294 299 304 304 295 284 285 282 283 273 266 277 275 275
162 163 161 162 158 160 159 157 158 163 167 147 133 124 114 92 30 17 239 218 162 61 13 18 50 56 49 26 351 347 332 319 313 311 305 307 312 333 331 321 302 303 289
149 152 155 159 162 162 155 150 144 141 132 123 117 106 82 59 38 45 41 41 59 62 47 51 70 54 45 34 15 1 348 322 322 322 317 319 329 338 336 325 319 314 300
142 146 146 152 152 150 148 139 139 134 121 106 105 95 82 55 48 44 39 49 57 57 48 41 41 48 33 15 357 356 21 16 305 298 303 313 320 336 337 324 319 309 291
146 147 144 142 139 136 131 128 126 116 110 102 95 92 83 58 46 42 34 59 69 66 61 62 66 52 29 13 358 6 2 11 347 318 319 307 307 306 294 292 290 289 279
135 133 136 137 131 127 123 116 108 104 98 93 91 87 81 59 44 39 30 70 75 69 67 60 63 63 34 17 9 4 356 351 341 327 302 287 284 280 272 282 286 291 295
123 120 118 118 118 116 112 108 104 102 99 94 86 82 81 69 48 42 35 46 57 62 83 77 62 55 36 22 12 359 350 345 336 325 310 292 278 272 263 242 263 289 298
116 112 109 108 109 108 105 104 103 99 96 94 93 87 82 77 60 50 45 42 30 33 53 72 64 35 19 7 352 332 324 318 309 301 298 299 302 302 301 275 253 268 286
104 103 102 101 101 101 100 98 99 104 107 108 108 100 88 77 63 57 50 42 27 28 32 40 32 347 333 323 315 305 313 313 300 305 317 328 334 339 340 330 312 295 282
97 95 92 89 87 91 96 99 101 104 106 107 105 100 91 77 60 46 41 34 21 19 15 358 323 298 305 303 281 297 313 319 331 336 338 338 337 336 333 328 327 322 315
95 92 90 88 83 73 70 72 67 59 68 78 77 80 84 68 42 24 21 25 18 18 359 322 300 286 285 309 326 321 308 341 348 344 343 339 340 340 340 340 333 330 321
95 93 91 88 85 77 68 60 68 56 61 68 67 67 69 65 37 27 23 13 2 359 333 310 323 11 2 5 2 3 2 4 5 358 348 343 341 339 335 334 329 324 320
100 99 98 100 100 101 96 80 59 70 71 74 77 83 81 84 63 23 11 349 338 341 336 339 12 17 11 7 2 359 3 8 3 349 340 338 335 332 328 327 326 325 321
87 91 99 104 109 112 116 116 107 78 66 72 81 88 96 102 31 349 340 327 313 319 331 6 21 17 10 6 3 1 358 356 349 342 341 337 334 331 329 327 325 322 319
82 82 90 98 105 113 120 123 126 129 121 108 101 109 121 187 288 307 324 328 339 24 18 19 17 12 10 9 5 359 349 343 344 343 337 336 336 331 327 323 321 320 319
80 78 78 88 94 96 101 107 111 113 111 119 125 126 256 260 258 282 315 341 7 22 22 18 15 8 7 4 356 347 340 336 340 338 338 340 336 330 324 320 317 316 313
79 72 69 81 93 94 88 88 90 92 92 89 89 68 12 321 10 38 23 10 16 21 17 12 9 2 3 357 350 346 339 338 343 344 342 338 332 325 320 317 316 315 310
102 93 77 73 73 71 73 74 75 77 80 81 84 72 2 351 28 35 33 29 23 15 14 7 357 356 3 359 354 344 341 345 350 347 341 332 325 320 315 313 312 310 307
111 102 85 80 76 69 71 77 79 77 76 79 94 94 28 13 33 35 29 26 21 10 12 6 354 358 4 356 347 344 346 354 355 343 331 322 317 314 312 309 308 307 306
95 95 91 86 85 85 81 77 71 66 62 58 53 52 48 35 31 34 25 23 16 4 5 358 350 355 3 354 349 3 12 3 343 328 321 316 315 311 306 303 303 305 306
90 93 97 99 95 86 78 74 66 61 59 52 45 41 41 37 30 31 22 18 4 357 359 351 351 354 357 2 11 24 21 354 334 324 319 309 304 300 301 301 301 302 304
86 85 85 82 81 79 75 69 63 57 52 48 43 36 30 26 23 23 18 9 356 357 353 352 356 354 3 25 22 14 1 338 324 321 312 302 298 299 300 303 306 306 307
90 88 87 86 83 79 75 68 62 57 52 50 45 35 22 15 16 16 11 3 354 354 354 353 354 7 21 23 16 12 350 331 321 315 307 298 297 301 310 311 312 312 312